GFSGL_850_spd_003.txt.gz
Wind_Speed
6 5 6 7 8 9 10 11 12 14 13 15 11 13 17 20 23 24 22 20 18 19 19 14 10 15 22 23 29 26 15 18 10 17 11 16 15 13 12 12 12 10 11
8 7 7 8 8 10 12 13 15 17 16 12 13 16 18 20 20 20 18 16 19 19 17 17 16 19 25 26 29 20 13 10 9 17 14 15 15 14 11 11 7 7 11
10 9 9 10 8 10 15 14 13 13 19 21 23 21 17 14 18 15 19 19 20 21 21 19 22 27 31 20 24 16 12 13 14 14 12 11 11 10 10 10 13 14 14
11 11 11 12 10 11 12 14 14 14 13 19 21 23 22 18 16 17 18 20 22 21 23 21 22 25 21 19 18 17 14 14 14 13 13 12 9 10 10 10 12 16 15
13 13 13 14 12 12 12 13 14 14 14 14 15 18 17 19 14 18 17 19 20 20 20 17 16 16 16 17 16 17 19 14 15 12 12 11 11 11 14 11 12 12 15
14 14 14 14 14 13 12 13 14 14 13 14 14 12 13 21 21 20 18 20 19 22 22 19 18 19 21 18 18 15 18 14 13 12 9 9 9 12 9 11 12 13 15
15 14 16 16 16 15 14 14 13 14 13 12 12 12 18 18 18 18 18 19 18 18 20 20 15 17 16 14 13 14 17 17 13 11 8 7 7 10 12 14 15 16 19
17 16 17 18 17 17 16 14 14 13 14 13 11 11 13 16 16 18 17 15 16 14 14 13 11 14 13 14 14 14 13 12 11 9 11 9 8 10 12 12 16 21 22
19 18 17 19 19 18 17 17 15 14 14 13 11 10 9 15 15 15 14 13 13 12 12 12 12 14 15 15 11 11 10 10 9 7 3 4 7 11 14 18 17 17 21
21 20 18 19 20 20 19 18 16 15 14 13 11 10 10 13 15 16 15 9 13 12 14 14 15 14 16 17 13 12 9 6 3 3 7 11 14 18 21 23 23 23 22
22 20 20 19 20 21 21 19 18 16 14 15 13 12 11 10 17 19 19 14 13 12 12 17 17 17 16 13 10 9 7 6 6 9 13 16 17 17 18 19 22 23 23
24 22 21 20 20 21 23 21 18 18 17 16 15 13 13 15 19 21 22 18 17 12 11 13 15 12 10 9 8 6 6 8 11 11 11 12 13 13 13 13 14 22 23
26 25 23 22 20 21 23 21 20 21 18 17 16 15 15 16 20 23 24 22 22 16 13 14 13 12 10 9 8 8 11 14 15 12 10 11 11 12 19 21 16 21 26
28 27 26 24 23 21 20 20 19 20 20 18 18 18 17 18 18 25 26 23 23 20 19 14 11 10 10 11 13 13 15 16 10 8 9 9 9 10 12 16 25 26 24
32 30 29 26 26 24 23 22 21 20 21 20 20 19 21 22 22 25 26 25 23 20 14 11 12 12 11 11 11 10 7 5 5 5 7 10 13 13 13 14 19 22 22
35 34 32 29 27 24 23 21 22 20 23 23 21 20 19 21 22 24 24 24 20 16 15 12 11 10 10 9 10 9 8 9 7 2 3 6 6 9 14 16 14 15 19
39 36 32 30 28 29 26 25 24 28 24 28 28 26 21 26 22 25 24 20 17 15 13 11 12 13 12 9 8 7 12 10 10 3 1 7 12 16 16 16 14 15 17
39 37 34 34 30 29 29 28 26 25 28 30 33 32 29 23 26 24 22 20 18 17 16 14 14 11 10 9 12 16 14 5 4 2 14 18 12 11 12 12 13 15 17
38 39 38 32 33 30 29 28 27 26 25 26 26 37 35 31 27 26 25 21 16 14 12 12 12 13 14 17 13 9 9 6 7 7 6 9 7 7 9 11 14 17 18
37 38 37 37 31 34 31 30 28 28 28 27 32 31 39 39 37 34 30 27 20 17 15 15 14 14 13 12 13 8 2 6 7 6 5 6 7 8 9 12 13 15 16
31 33 39 36 35 31 33 31 30 27 27 27 30 32 29 36 38 33 28 20 20 21 19 17 17 19 18 14 12 9 8 7 4 4 5 6 7 9 11 11 13 14 16
26 27 31 42 37 35 32 33 29 29 26 25 23 29 25 22 20 20 20 21 20 22 21 25 23 18 19 16 15 15 6 6 5 4 6 3 7 10 10 11 13 15 16
22 24 27 31 39 36 32 31 33 29 27 26 24 27 29 22 22 24 25 25 25 23 24 21 21 21 19 14 5 11 13 9 6 4 4 5 7 10 9 12 14 17 19
20 21 22 25 29 32 33 31 34 30 25 31 30 25 25 27 29 25 22 22 24 24 23 23 22 16 11 13 16 14 12 9 6 3 3 4 5 9 11 14 16 18 20
19 19 19 21 20 29 30 26 27 26 29 30 32 32 31 30 29 30 29 28 29 29 25 20 14 17 24 20 15 13 10 7 3 2 3 3 7 10 11 15 16 19 19
14 15 17 18 18 20 24 26 26 24 25 30 34 36 33 32 33 34 35 37 33 25 22 21 24 23 20 20 16 12 8 4 2 4 5 6 8 10 15 16 16 20 20

GFSGL_850_spd_006.txt.gz
Wind_Speed
4 3 4 4 6 4 8 11 11 15 14 15 18 20 21 21 24 25 26 25 22 23 21 19 18 23 32 27 32 28 25 25 28 22 18 16 16 13 11 13 11 8 10
5 5 6 5 6 5 10 14 14 12 13 15 18 20 21 20 20 20 19 21 20 19 17 14 24 26 27 28 27 23 25 16 12 22 17 18 16 14 8 14 10 9 8
8 6 8 6 6 7 8 13 16 15 14 17 18 18 19 22 20 18 19 20 20 19 16 15 26 27 27 27 28 21 17 13 15 18 13 12 17 15 12 14 11 9 14
10 8 9 7 7 10 11 10 14 16 20 19 17 17 16 17 15 17 18 21 19 17 16 18 22 26 25 32 24 17 16 13 16 11 12 16 15 14 12 15 15 14 19
12 10 11 10 10 11 11 12 11 16 21 19 21 19 12 17 19 20 22 19 20 23 21 22 27 26 22 26 22 17 17 15 16 12 14 14 13 15 17 11 12 11 14
14 12 13 13 12 13 12 13 13 15 14 14 14 16 18 20 17 21 21 21 22 22 21 24 25 18 18 16 14 15 16 15 17 15 17 12 10 10 9 11 14 15 20
16 15 15 16 14 13 13 14 14 14 14 12 8 16 20 21 19 19 19 20 20 20 20 21 20 18 16 19 20 18 18 19 15 15 14 10 13 11 12 10 12 17 21
17 16 17 17 16 15 14 14 16 17 13 10 10 15 17 19 20 20 18 19 21 22 19 17 22 23 20 18 18 23 19 19 18 15 16 16 13 12 12 13 17 19 20
19 18 19 19 19 18 17 16 14 18 16 14 11 13 15 17 20 18 15 18 17 20 15 14 17 18 17 16 15 16 15 14 13 12 11 10 9 10 12 14 15 16 18
21 20 19 20 21 20 20 18 15 17 17 15 11 9 13 16 17 15 14 10 14 17 17 14 16 15 15 16 14 14 14 12 10 9 7 8 9 12 14 16 18 19 20
22 20 20 20 23 21 22 21 19 18 14 15 12 12 11 15 17 18 17 13 10 13 13 15 16 17 18 18 16 14 10 8 6 5 6 8 12 16 16 14 13 17 16
23 22 21 22 22 23 24 22 20 20 17 18 16 14 13 14 18 19 20 14 13 11 11 15 16 17 18 17 13 10 8 8 7 6 5 4 7 10 10 7 10 13 19
24 24 24 24 21 23 26 24 21 22 18 20 18 17 15 15 18 22 24 20 19 16 14 18 18 18 17 13 9 7 8 9 10 7 1 2 7 8 11 13 17 18 18
27 26 27 26 22 23 23 26 24 24 25 20 20 18 17 17 18 24 28 25 25 20 19 16 15 14 12 11 10 10 12 12 11 9 6 13 14 16 16 16 14 14 19
30 28 29 28 23 25 23 23 24 22 24 22 21 19 20 22 21 25 27 27 28 23 20 16 15 13 12 12 12 13 8 4 4 9 8 10 12 11 7 10 14 14 16
33 32 32 30 27 27 26 23 18 21 16 22 19 19 19 21 17 21 25 25 26 24 18 16 14 12 11 9 4 2 7 13 13 8 10 6 5 9 13 12 15 15 11
36 35 33 31 29 29 26 26 26 25 22 22 25 23 22 22 21 19 22 24 23 22 21 18 14 10 7 9 13 21 26 20 12 9 5 4 11 8 11 11 8 11 14
39 36 36 37 31 32 30 29 26 27 29 28 30 27 27 22 27 24 22 23 23 21 20 19 14 12 12 16 16 18 17 8 3 4 5 8 10 8 5 8 12 14 16
41 40 38 34 36 30 31 30 30 26 28 33 31 34 31 30 23 25 25 26 25 24 22 20 14 20 22 23 26 19 13 9 6 5 8 8 5 3 7 8 9 13 16
39 42 41 38 33 34 33 33 33 32 29 31 31 34 38 33 30 30 30 28 24 18 14 15 24 24 25 24 20 13 12 11 12 9 4 3 6 5 5 9 12 13 14
36 39 40 38 34 35 34 35 34 34 34 33 36 32 26 41 40 37 34 32 29 24 20 30 28 26 24 17 18 17 16 15 7 8 8 5 4 6 7 9 12 15 17
30 34 39 43 38 39 31 36 32 36 35 35 34 40 32 24 36 43 41 37 29 26 30 32 30 26 21 21 21 19 18 13 14 13 9 4 2 7 7 11 15 17 18
27 25 30 37 39 34 39 24 37 32 32 33 35 33 38 34 31 30 30 32 34 35 31 31 25 26 28 25 22 16 13 16 14 11 7 7 2 5 8 11 14 17 17
22 24 26 25 30 33 34 35 30 30 31 29 30 32 33 31 36 37 38 39 39 35 29 28 26 27 30 25 20 19 23 19 15 11 8 6 2 5 4 9 13 14 15
23 17 23 23 24 29 29 31 31 24 30 28 27 32 42 41 40 38 44 41 37 36 31 27 32 32 27 23 25 29 25 17 12 8 7 6 3 1 5 9 10 14 15
20 22 13 23 21 21 22 24 28 21 25 24 30 43 42 42 38 40 42 38 34 32 36 37 33 27 26 29 30 25 20 14 10 9 8 5 2 2 6 7 11 14 16

GFSGL_850_spd_009.txt.gz
Wind_Speed
5 4 4 2 5 8 10 10 12 12 12 14 13 18 19 21 22 22 20 20 20 22 22 22 23 29 31 30 35 31 26 26 30 26 21 18 19 22 19 13 12 9 8
5 7 5 3 3 7 9 10 7 11 15 15 15 20 19 22 22 21 23 23 22 21 19 21 25 28 36 33 31 28 27 19 22 23 20 15 12 13 10 10 10 10 8
10 6 8 3 3 8 10 11 10 10 15 16 17 19 20 21 19 19 21 20 20 17 14 19 27 33 28 24 26 29 25 20 16 14 17 16 14 13 11 12 9 10 10
13 6 9 2 6 9 10 11 14 14 15 16 16 16 17 16 15 15 17 17 12 15 14 25 28 28 31 28 24 26 22 15 13 14 15 15 17 14 11 12 11 10 6
14 9 12 7 12 11 12 14 16 17 18 16 15 17 17 14 13 16 18 18 12 16 18 23 24 29 29 28 26 25 19 16 16 13 13 18 16 16 11 9 10 9 10
15 11 11 12 11 13 10 13 15 18 18 14 14 15 15 16 18 17 19 19 19 20 21 22 22 27 28 24 21 17 14 15 14 13 14 12 10 8 7 8 8 10 12
16 13 9 17 15 15 15 14 11 11 13 12 14 17 20 20 20 19 22 20 20 21 26 28 25 26 25 20 15 17 15 15 10 9 6 6 4 3 2 6 9 12 13
18 15 10 20 17 14 18 16 12 12 10 12 17 17 19 21 19 17 16 16 20 21 22 21 23 23 21 20 20 16 16 16 15 11 15 9 8 10 11 13 16 14 14
21 19 15 21 18 18 18 19 17 13 10 13 16 18 20 23 18 18 19 21 21 19 16 17 19 17 17 16 18 22 18 18 14 12 12 15 10 11 12 15 16 16 17
22 23 16 17 21 20 19 16 19 18 13 10 12 14 16 19 18 18 19 21 19 17 15 15 16 17 17 17 19 20 17 18 13 14 12 9 7 5 5 5 6 5 7
20 22 19 18 22 17 20 17 14 19 19 14 10 12 16 18 18 17 17 16 18 18 16 17 18 17 17 16 15 15 14 14 13 10 7 3 1 5 7 6 5 7 10
23 24 23 20 23 22 21 20 16 18 20 17 14 10 12 17 18 18 16 13 12 15 16 16 16 18 19 18 16 16 14 11 9 5 5 7 7 5 0 3 7 11 13
25 27 26 22 22 24 22 22 20 19 21 21 19 16 13 13 18 20 19 14 13 14 14 16 18 20 21 19 16 13 11 10 9 8 10 8 3 2 7 8 6 7 8
27 29 28 26 25 24 22 23 21 21 25 23 22 21 17 16 18 23 25 20 18 17 17 19 18 18 18 16 15 14 12 9 9 12 10 5 5 4 8 7 7 8 10
30 30 32 29 27 25 24 24 21 20 23 26 25 24 20 20 18 22 27 25 23 20 20 20 20 20 20 19 16 12 9 11 15 12 7 6 7 6 2 5 7 3 8
34 33 33 33 31 27 24 24 22 19 19 25 20 18 18 17 14 16 24 26 26 25 24 23 20 19 18 16 14 13 16 16 15 12 8 1 1 3 3 4 5 6 7
38 37 35 35 35 31 27 25 23 19 20 15 23 19 18 16 16 15 22 27 28 29 26 23 19 18 15 13 16 17 19 20 15 11 4 1 4 4 6 4 3 5 7
39 37 38 37 36 34 30 27 26 25 27 25 25 26 24 25 22 17 19 26 32 32 30 25 22 19 17 18 19 22 25 23 19 13 7 6 8 6 4 5 5 7 8
39 40 39 38 36 34 31 27 27 27 27 28 27 30 29 26 24 27 25 27 31 32 30 27 26 25 21 22 24 28 28 24 18 10 14 8 5 8 6 4 3 5 9
40 42 42 39 38 33 31 32 30 30 30 29 32 32 35 33 32 31 36 33 30 27 27 29 30 26 23 27 30 29 27 20 16 18 11 7 11 10 7 4 3 6 9
40 41 44 43 41 40 36 33 34 31 34 33 32 28 30 36 38 38 36 38 34 30 28 31 31 29 30 32 30 27 23 20 19 12 11 15 13 9 7 4 3 8 10
37 40 43 46 44 40 39 37 33 37 36 35 35 33 30 30 35 42 41 40 38 33 34 33 30 31 33 37 34 28 25 23 20 20 20 16 11 8 6 2 5 9 11
39 36 36 43 45 44 33 34 38 35 40 38 39 39 36 35 37 33 42 41 40 40 38 35 30 36 38 36 29 28 28 24 19 20 21 16 11 8 6 1 4 7 10
33 31 27 34 41 44 43 41 37 37 41 35 44 44 41 40 41 43 41 43 44 45 38 36 37 43 39 35 34 32 27 24 24 23 18 14 11 9 5 1 3 6 9
24 27 28 25 27 34 38 39 36 35 38 32 35 39 43 44 45 46 43 41 42 44 46 45 43 39 36 38 38 30 26 22 23 20 17 14 11 8 5 2 2 7 9
25 23 22 15 28 30 29 32 38 34 31 37 34 37 37 39 44 44 45 43 44 45 41 40 37 39 40 35 30 27 27 28 23 19 16 13 10 8 4 2 3 6 8

GFSGL_850_spd_015.txt.gz
Wind_Speed
3 2 0 5 6 9 4 5 5 7 8 10 11 13 10 8 8 7 9 9 9 10 11 12 16 17 20 20 23 21 24 22 25 26 26 32 33 29 26 16 11 5 4
3 3 1 3 4 6 4 5 8 8 8 9 10 11 10 9 8 7 9 9 7 9 11 15 18 15 15 18 23 23 21 23 25 26 22 20 36 24 21 14 8 4 7
4 3 3 2 3 5 5 6 8 9 10 11 10 10 12 12 10 8 8 9 9 8 10 12 13 15 20 24 23 20 20 16 20 22 24 23 25 28 24 15 8 8 6
6 4 4 1 3 5 7 10 9 12 13 13 12 12 12 10 9 9 9 10 10 10 9 10 13 16 19 22 23 18 18 20 21 21 21 22 20 20 17 11 9 7 5
8 6 5 6 7 8 10 10 10 11 13 13 13 12 10 10 10 10 11 10 6 6 10 12 15 17 17 18 22 23 23 27 22 24 23 18 16 16 12 11 11 8 5
11 8 9 9 11 12 11 13 11 10 10 13 12 10 7 9 9 9 8 7 4 5 10 13 15 18 20 23 18 20 20 20 24 24 13 13 14 13 12 10 10 7 4
15 11 10 12 11 11 13 14 12 10 10 10 11 9 7 9 11 10 8 7 6 10 13 17 21 22 26 29 24 19 18 16 13 8 9 12 14 13 12 11 9 5 1
19 14 11 14 13 13 13 11 11 10 9 12 11 11 9 10 10 9 11 13 14 15 16 22 22 26 26 25 20 17 14 14 14 15 15 14 13 13 10 7 4 2 2
23 18 13 16 15 14 13 11 9 11 12 12 14 14 14 18 15 13 15 16 16 20 20 28 27 24 25 21 15 13 15 15 13 10 10 8 9 9 7 5 3 1 2
25 20 15 17 17 14 12 11 11 11 13 13 14 13 11 12 14 14 15 16 20 18 20 21 20 21 17 14 14 13 14 13 11 11 14 10 6 4 4 3 3 3 4
24 21 17 18 20 16 15 13 12 11 13 13 14 14 13 12 14 14 15 17 19 20 21 21 20 16 13 15 14 11 10 13 11 9 8 7 5 4 3 0 3 6 7
26 23 20 18 22 20 19 17 14 12 12 14 14 14 14 13 14 15 16 15 14 15 18 17 15 16 15 15 15 14 13 12 10 8 8 8 6 5 6 7 7 7 5
28 24 23 21 23 22 23 21 19 17 15 16 17 16 15 15 14 13 13 12 11 12 15 16 16 15 15 14 14 16 15 14 13 12 10 10 9 9 9 7 6 7 4
30 26 26 26 23 25 22 23 22 20 20 20 20 20 20 18 16 15 14 14 13 14 13 15 16 16 15 15 17 17 16 14 13 13 12 11 12 11 8 8 7 5 4
31 28 27 29 27 25 24 23 23 21 19 22 23 21 20 21 22 19 17 16 14 15 17 18 20 21 22 22 22 20 19 18 17 16 15 13 13 12 10 10 9 7 7
34 33 30 30 32 29 26 26 25 20 18 17 17 19 18 16 14 17 20 20 18 18 21 21 24 25 25 25 24 23 21 20 18 16 16 15 14 15 14 15 12 10 9
37 35 33 31 32 33 31 28 27 24 22 20 17 19 20 17 17 15 18 22 23 22 24 24 26 26 26 27 27 25 23 21 20 20 20 18 19 17 16 14 14 13 11
39 36 34 34 32 32 33 29 27 24 24 25 24 23 24 22 20 18 19 21 27 30 28 28 28 28 28 29 29 28 27 25 24 23 22 21 22 18 18 20 18 14 12
42 40 37 35 33 31 31 32 30 27 24 24 25 26 26 27 24 24 25 27 27 31 33 32 31 31 32 31 31 30 30 29 27 26 26 24 23 21 22 20 17 13 9
41 39 39 38 36 35 33 35 34 31 29 26 25 25 26 30 32 32 32 32 32 31 31 35 35 34 34 34 33 32 31 31 30 30 29 28 26 25 25 21 16 12 10
39 41 41 40 39 38 35 35 35 35 32 29 25 24 26 29 33 35 35 35 35 33 32 32 35 36 37 36 35 34 33 32 34 35 33 32 30 28 21 18 11 15 12
37 36 37 39 40 40 39 36 35 34 34 33 28 25 26 30 32 33 35 36 35 34 33 33 32 34 38 40 41 40 37 33 35 37 37 35 33 29 27 18 20 18 13
35 34 35 34 36 39 40 37 35 34 35 35 31 28 28 29 32 34 34 34 37 35 35 35 37 35 34 37 42 42 40 36 31 38 40 38 36 33 21 17 21 18 12
34 35 35 32 31 32 35 38 37 34 33 33 32 31 28 26 30 31 31 31 32 34 36 39 39 39 36 41 40 41 39 35 29 37 42 39 33 24 22 21 21 15 11
31 34 36 34 32 29 31 32 33 34 35 35 34 35 32 30 30 28 29 30 33 33 35 39 40 41 43 44 44 42 40 35 32 40 40 34 26 26 20 20 18 14 10
23 26 31 33 34 31 33 32 31 33 35 34 35 34 33 31 31 32 32 33 35 37 39 39 40 42 42 42 41 39 37 30 35 39 35 30 30 28 23 22 19 15 12

GFSGL_850_spd_021.txt.gz
Wind_Speed
7 5 3 2 3 2 2 2 5 8 11 12 11 7 7 6 5 5 8 9 6 9 8 7 6 10 16 13 11 13 13 17 26 24 42 44 41 41 35 29 25 21 18
7 5 3 0 2 2 3 5 7 8 10 11 11 8 5 6 6 8 9 8 9 10 9 7 8 12 13 13 9 14 17 17 21 32 38 44 41 36 33 29 23 18 17
6 6 4 1 1 3 4 6 6 9 10 11 11 8 6 6 8 8 8 9 9 11 10 11 13 13 17 10 14 16 18 20 24 34 41 35 40 30 29 27 22 20 19
7 7 5 3 2 7 7 8 10 11 11 11 12 12 10 9 10 10 9 10 12 12 12 12 11 10 12 13 13 16 17 22 31 35 35 31 37 32 27 23 22 20 19
9 7 5 4 5 9 8 10 11 11 12 13 14 13 11 10 11 13 12 12 13 15 15 13 14 14 14 11 13 17 17 25 28 34 35 35 34 33 27 23 22 22 19
10 8 6 7 8 10 9 11 10 12 14 14 13 11 12 13 15 15 11 11 13 16 17 17 15 14 15 13 14 19 17 24 25 34 32 32 32 28 23 22 24 24 19
12 9 9 9 11 14 10 10 11 11 11 10 9 10 11 12 13 9 9 8 11 16 19 20 18 15 16 14 15 15 22 25 20 30 30 35 31 25 22 25 24 19 17
15 12 12 11 12 13 11 10 10 10 9 6 6 9 11 11 9 7 6 6 11 18 19 20 19 21 19 21 27 29 29 28 24 22 24 28 23 21 22 24 22 21 18
19 15 15 14 14 14 11 11 10 11 11 9 8 11 12 14 7 6 9 13 18 19 19 21 23 23 23 20 26 29 20 19 20 21 23 24 23 23 23 22 20 17 15
20 18 16 16 15 15 12 11 11 14 15 13 16 14 14 14 13 12 12 16 18 22 22 27 24 25 23 18 19 20 22 24 25 25 24 25 24 22 19 16 13 13 14
22 20 17 18 17 15 13 11 12 15 15 14 15 16 15 15 15 16 13 16 20 22 23 23 26 22 17 16 20 21 22 23 24 23 24 22 20 18 16 14 14 12 10
24 23 20 19 19 18 15 14 14 14 16 16 15 15 15 16 16 17 18 20 24 27 27 29 23 19 17 20 20 19 18 20 21 22 20 19 18 16 15 14 12 10 8
26 25 23 20 22 20 18 17 16 16 16 17 16 16 17 17 17 18 20 20 18 23 26 23 19 17 17 18 20 20 19 19 19 17 15 16 16 14 13 12 12 9 6
28 27 26 24 25 24 21 18 18 17 18 17 16 16 17 18 19 19 19 21 20 20 19 18 16 16 17 18 20 20 18 15 12 12 13 14 14 13 12 10 9 7 5
31 28 29 27 25 27 24 23 21 18 17 18 18 17 18 19 18 17 17 19 19 19 18 17 17 18 19 21 21 20 19 16 14 14 14 14 14 13 13 12 10 8 8
34 32 31 30 28 27 28 25 23 20 17 15 13 14 16 15 16 16 16 16 16 17 18 19 19 20 20 21 22 22 21 19 18 17 16 16 14 13 14 15 14 12 10
36 35 33 33 31 28 27 26 26 24 21 18 16 16 15 14 18 18 17 16 16 17 18 19 20 21 22 22 22 23 23 22 21 20 18 18 18 17 17 18 17 15 12
37 34 34 35 34 31 29 27 23 23 25 25 23 21 21 20 18 18 20 21 22 23 22 19 22 23 23 24 24 24 24 24 22 22 22 22 21 20 19 20 20 17 14
40 39 36 34 34 34 30 28 25 22 22 21 25 25 24 25 25 24 24 24 26 27 27 27 25 24 24 24 25 26 26 26 26 25 25 24 24 23 22 21 19 18 16
41 39 38 36 35 35 36 33 29 27 26 23 25 26 29 29 30 32 32 31 30 29 29 29 29 28 27 26 26 27 29 29 29 29 28 27 27 27 26 25 26 25 21
43 42 41 39 37 36 36 37 34 31 30 29 29 28 28 28 30 31 34 35 35 33 31 31 31 31 31 31 30 30 30 30 31 32 33 32 31 29 29 28 27 25 24
43 44 43 43 40 39 38 36 36 36 34 32 32 31 29 28 29 29 30 31 32 34 33 32 31 31 32 32 32 33 33 33 34 35 35 35 33 31 32 32 30 28 29
39 42 42 43 42 40 40 38 37 37 36 35 33 32 33 33 33 32 29 27 27 27 30 32 32 32 31 29 30 30 32 35 36 35 36 36 36 36 35 35 34 35 32
35 35 38 40 41 40 41 41 40 39 38 38 37 36 36 34 34 34 31 26 25 24 26 29 31 31 31 30 30 30 30 32 34 34 35 37 39 40 35 34 38 34 34
29 29 30 33 36 39 39 38 40 41 40 40 39 39 38 37 35 33 31 31 29 27 26 25 27 28 29 30 32 33 33 33 33 35 37 40 41 38 35 39 41 38 35
29 30 23 21 28 34 36 38 38 37 38 37 37 39 39 38 35 32 31 31 31 29 27 26 26 27 29 30 32 33 33 33 34 34 32 34 35 36 41 43 41 41 33

GFSGL_850_spd_024.txt.gz
Wind_Speed
10 8 6 4 1 2 2 4 6 8 9 7 6 4 5 5 4 4 7 6 4 8 10 7 7 10 11 12 16 15 12 5 19 25 28 39 50 45 38 34 30 30 27
10 8 5 4 2 2 3 6 8 8 9 9 7 4 4 4 4 5 5 5 7 9 9 8 9 11 12 10 10 14 15 15 23 40 44 42 43 37 35 31 25 24 25
9 7 6 4 2 3 4 6 9 9 9 9 8 5 4 4 5 6 6 7 7 8 8 9 11 13 13 8 16 18 21 25 37 45 45 46 41 36 34 29 25 24 23
9 8 5 4 4 5 5 6 10 10 9 9 8 6 6 7 7 8 7 8 10 10 9 10 11 13 13 14 15 20 25 29 36 41 48 43 39 36 32 29 25 24 25
10 8 6 5 7 7 8 9 9 10 10 9 10 10 7 6 8 10 10 11 13 14 11 10 10 11 11 13 14 17 21 34 36 45 42 40 36 34 33 29 27 23 20
11 9 7 7 9 8 9 9 9 11 11 11 9 10 9 9 11 12 12 11 13 14 14 14 15 14 14 14 17 16 21 36 41 43 42 38 37 33 31 27 26 26 22
12 10 9 9 10 9 10 10 10 10 11 9 9 10 12 14 12 10 10 12 12 14 16 16 17 16 16 17 17 17 20 24 36 35 41 40 35 30 28 27 23 18 15
13 12 11 10 11 10 10 11 11 10 10 9 10 11 12 12 10 8 9 8 13 14 14 16 17 13 15 19 17 19 18 23 26 26 33 31 30 26 24 23 20 20 18
15 14 13 12 12 11 10 11 10 10 7 7 11 12 12 11 9 7 10 11 14 15 16 17 17 17 19 22 23 24 20 21 23 26 26 28 23 20 20 22 21 18 17
18 16 15 13 13 11 10 10 12 11 9 10 12 10 14 11 7 9 13 16 20 18 18 20 19 22 27 27 26 24 24 23 29 33 29 22 19 21 19 15 16 13 14
19 17 17 16 14 12 11 10 13 13 10 12 15 14 13 14 13 11 14 16 22 21 23 25 23 20 21 20 16 21 25 27 28 29 26 24 23 23 22 15 14 11 13
21 19 18 17 15 13 11 11 13 13 13 13 13 13 14 15 13 14 16 17 21 26 24 25 23 18 19 19 19 22 24 25 21 21 21 20 18 17 20 19 20 18 19
23 21 20 19 17 16 14 13 13 13 12 12 11 11 12 12 15 16 17 22 21 21 24 24 20 18 21 21 21 21 22 17 19 19 18 17 16 20 18 17 16 14 11
25 24 21 20 20 18 16 15 14 14 14 13 12 13 13 13 16 20 21 23 21 21 22 23 19 19 20 18 20 21 14 16 17 15 15 15 18 17 17 15 15 15 14
26 25 24 21 22 19 18 17 15 15 14 13 13 13 15 16 16 19 21 19 18 20 22 21 17 16 15 18 19 17 14 17 15 14 15 17 17 16 15 16 15 14 10
28 27 26 24 22 21 20 18 21 18 20 19 17 14 13 14 17 19 21 22 23 21 18 15 15 16 17 18 18 17 16 18 15 15 15 16 17 16 15 16 14 12 11
32 29 26 25 23 23 23 21 21 24 20 19 18 20 18 18 18 18 18 18 17 19 16 15 16 17 18 19 19 20 20 18 17 16 16 17 16 16 17 14 14 13 12
32 31 28 28 25 24 24 23 21 21 23 24 25 23 22 20 20 20 20 20 21 21 17 16 17 17 18 19 19 20 19 19 19 18 18 18 18 17 17 17 16 16 16
33 30 28 26 25 25 24 24 23 22 21 21 21 27 27 26 24 24 23 21 19 20 20 18 17 18 19 20 21 21 22 22 21 21 21 20 20 20 19 19 18 20 20
33 33 32 26 26 26 25 24 24 24 23 23 24 22 29 32 32 31 30 29 22 21 21 22 21 20 21 21 22 22 23 24 26 24 23 22 22 22 20 20 20 20 23
34 34 35 29 27 26 26 26 25 25 24 24 24 23 26 32 27 27 28 32 29 26 26 25 25 25 24 24 23 23 24 24 25 24 24 24 23 24 23 23 23 24 22
34 33 38 35 29 27 28 27 26 26 25 25 24 23 27 29 24 25 26 26 28 29 27 25 25 26 26 26 27 27 27 26 26 25 25 24 24 25 24 25 25 26 27
32 33 32 36 33 30 29 27 27 28 27 27 26 25 28 28 29 27 27 26 26 26 27 28 27 26 26 27 27 28 28 27 26 26 26 28 29 30 27 30 30 29 30
29 31 30 32 34 33 32 32 30 30 28 28 28 28 28 27 29 31 29 27 26 26 26 27 28 29 28 27 28 27 27 27 26 27 30 27 27 30 27 33 31 32 33
28 29 30 29 32 35 31 30 30 29 29 30 29 29 29 29 26 28 29 30 28 27 27 27 26 28 31 31 30 29 29 31 29 28 25 28 28 30 30 35 36 35 36
27 28 28 28 28 29 30 26 26 25 27 28 29 30 30 30 31 29 28 29 30 29 29 27 29 29 28 28 31 32 33 33 31 32 34 32 27 30 35 38 39 38 36

GFSGL_850_spd_027.txt.gz
Wind_Speed
11 9 7 5 3 5 2 6 5 8 6 6 3 3 4 4 3 3 5 5 6 7 6 6 3 5 8 12 15 14 16 14 22 22 23 30 38 43 45 45 44 34 28
11 8 7 5 3 4 2 4 6 8 8 7 5 3 3 2 1 3 4 4 6 8 8 5 5 10 10 11 14 13 10 11 18 32 36 48 45 42 42 40 34 29 27
11 9 7 5 3 4 6 7 10 8 8 7 6 4 4 3 4 6 4 6 5 5 6 6 8 9 9 10 8 11 12 14 20 34 46 44 42 38 36 35 33 29 26
11 9 7 5 4 5 4 7 10 9 8 8 5 4 5 4 5 7 5 6 7 5 6 7 9 9 7 7 14 16 18 21 40 49 49 43 37 33 32 33 32 27 28
11 10 7 6 7 6 5 9 12 12 9 8 7 7 6 5 6 5 5 7 7 7 10 10 11 11 12 10 15 21 30 37 44 48 44 39 38 35 34 31 33 27 21
12 11 9 9 8 8 7 8 9 10 10 9 9 7 8 6 8 10 8 10 7 9 9 9 11 10 12 11 16 22 31 40 48 47 44 41 39 35 29 31 31 28 25
13 12 10 11 9 9 7 8 9 11 12 11 10 7 9 13 11 12 12 6 7 9 12 15 14 14 13 15 13 16 28 38 43 45 44 41 39 34 31 29 27 24 23
14 13 12 12 10 9 9 10 9 11 10 10 11 10 11 11 9 10 12 8 7 10 11 15 15 15 17 18 19 26 29 36 35 40 35 32 34 28 23 24 22 17 18
15 14 12 13 12 10 9 10 10 9 9 10 11 12 10 9 6 7 11 8 8 13 13 13 11 18 15 16 19 23 23 30 27 30 31 26 27 22 23 25 21 21 19
16 15 14 13 11 11 8 10 10 7 5 8 12 13 11 9 8 8 11 8 14 16 17 12 17 20 17 18 20 24 28 29 27 28 30 25 22 23 22 18 17 15 15
17 17 15 14 13 11 10 10 11 11 9 9 9 10 11 8 8 12 11 13 15 19 20 21 26 24 24 21 19 24 30 35 32 33 30 25 22 21 19 17 16 14 15
19 18 17 16 13 11 11 9 11 10 10 11 11 11 9 8 8 13 15 17 20 18 19 24 24 21 19 19 19 23 31 34 33 29 22 20 20 22 16 19 18 17 21
21 19 19 17 15 12 12 12 10 10 8 8 9 11 11 9 10 16 17 20 19 19 18 22 20 18 18 16 20 26 26 23 23 22 20 19 17 19 24 22 21 19 18
23 21 20 19 17 14 12 12 11 10 10 9 10 9 11 11 11 16 21 22 21 18 20 18 18 20 18 20 25 24 17 20 21 20 20 19 22 23 18 19 19 19 17
24 23 21 20 20 17 14 13 12 11 11 10 10 11 12 13 12 16 19 16 19 19 20 19 19 17 17 21 22 19 15 17 18 17 18 18 17 18 15 15 14 14 11
26 24 23 21 22 19 18 17 16 16 17 12 14 13 13 12 15 17 22 18 17 20 16 14 14 14 15 17 17 17 16 19 17 16 17 16 16 16 15 15 14 15 12
30 27 24 23 21 22 21 19 20 20 20 20 18 15 15 14 13 17 22 23 21 18 16 15 15 15 17 18 19 19 18 18 18 16 16 16 16 16 18 16 17 16 16
31 28 25 25 22 23 22 22 19 20 20 22 24 22 18 16 16 19 21 22 24 23 18 17 17 17 18 19 21 21 21 21 20 19 18 18 19 19 19 19 19 19 19
31 27 26 23 23 22 22 22 20 20 19 19 20 26 26 23 20 21 22 22 20 21 21 18 18 18 19 20 22 22 24 24 25 24 22 22 22 22 22 20 20 22 22
33 30 29 24 24 23 23 22 22 22 21 21 22 23 31 29 28 29 30 28 22 21 22 22 20 21 22 23 24 24 25 26 26 28 28 27 27 26 26 25 22 23 27
31 31 33 27 25 25 25 24 24 24 24 23 23 24 27 34 29 29 32 33 28 24 23 23 24 24 23 24 24 26 27 29 31 30 29 27 27 28 29 27 25 24 23
32 31 35 32 26 26 26 26 25 25 25 24 24 24 30 26 29 29 29 30 31 31 28 26 26 25 27 26 26 27 27 28 29 30 29 29 30 31 30 28 25 26 25
32 31 31 35 31 28 29 27 27 26 26 25 24 24 30 31 27 30 32 31 31 30 31 33 29 28 28 29 31 31 30 30 30 31 32 32 31 31 30 30 29 28 29
32 32 33 32 34 32 31 33 30 28 27 26 27 27 29 31 30 31 30 31 31 31 28 30 32 31 30 30 30 31 32 32 31 31 31 32 32 29 31 28 27 29 30
30 32 34 33 33 37 34 33 32 28 29 28 28 28 28 27 28 30 32 34 33 33 32 32 31 30 32 33 32 31 31 32 34 33 30 32 32 29 28 29 27 30 35
31 30 33 33 32 33 36 33 33 32 30 30 30 29 29 29 30 30 31 33 37 37 36 34 35 32 30 31 33 34 33 35 35 34 34 30 27 30 26 28 26 31 43

GFSGL_850_spd_030.txt.gz
Wind_Speed
13 11 9 5 5 4 3 8 6 10 3 4 4 5 4 3 3 4 6 5 5 3 3 3 4 4 4 9 18 20 19 21 25 18 18 17 22 26 41 40 43 44 32
13 11 7 5 7 7 4 8 5 11 6 7 4 5 3 1 1 4 3 3 3 5 5 4 2 8 8 14 17 17 19 14 21 31 28 27 33 41 48 47 40 34 31
13 11 7 8 6 3 8 9 11 9 8 6 3 5 3 3 3 5 4 3 3 3 3 4 7 8 11 15 16 14 14 17 20 30 37 44 47 47 43 41 39 33 29
14 12 7 6 3 6 6 13 11 8 8 8 4 5 4 4 4 4 4 7 4 3 2 5 6 5 9 9 11 13 15 24 36 43 41 42 43 45 37 39 34 30 29
14 11 6 6 6 5 6 13 13 10 8 9 7 4 5 5 4 4 5 6 4 5 6 6 7 7 6 11 15 16 17 38 50 44 44 43 40 39 38 36 35 31 25
13 11 5 10 8 7 7 12 14 13 11 6 4 5 9 3 6 8 9 8 6 6 8 8 10 9 11 14 15 16 22 48 50 48 44 42 41 39 34 30 28 32 28
14 12 8 13 10 6 8 10 12 13 15 10 8 6 6 7 11 11 10 8 8 6 11 12 12 12 14 17 19 20 35 44 44 48 44 39 35 32 34 33 31 29 27
15 11 10 13 10 10 9 10 9 11 11 11 10 8 12 10 11 12 11 9 8 11 13 11 13 14 15 17 25 28 39 42 41 39 33 35 29 31 28 23 26 21 21
15 11 17 12 11 10 9 10 9 9 10 11 13 8 11 10 10 11 11 10 12 14 13 12 14 15 14 18 27 33 38 42 32 31 29 33 33 29 26 26 23 24 23
15 16 16 14 10 12 7 9 8 6 6 11 15 11 12 9 9 12 12 10 13 14 10 9 13 14 15 18 22 33 34 37 33 30 28 31 24 24 29 20 22 22 22
16 16 13 12 14 10 7 11 10 8 8 12 12 12 9 9 9 12 13 11 12 11 14 18 16 17 18 20 22 26 30 31 34 34 35 32 27 27 25 20 18 11 16
18 17 19 18 13 10 8 13 12 9 11 10 11 10 9 8 9 15 15 15 17 15 21 23 22 19 18 18 22 30 29 34 38 34 28 28 28 26 22 20 22 17 16
20 20 19 17 15 13 10 11 11 11 9 10 12 10 9 9 13 17 19 22 19 15 24 24 21 18 16 16 24 27 31 33 35 30 27 25 25 22 23 21 18 14 14
23 23 19 20 16 11 15 10 8 11 12 11 12 11 10 9 17 19 25 22 21 17 21 19 18 18 16 21 26 29 28 30 27 24 22 20 21 23 21 18 18 19 17
25 25 23 21 19 15 14 15 12 10 11 15 10 11 13 11 16 22 26 24 21 22 22 21 20 19 25 28 27 24 22 18 19 18 18 20 21 21 21 20 21 20 22
28 26 25 23 22 19 19 18 14 13 9 10 15 9 8 8 15 23 20 19 21 22 21 23 19 20 25 30 25 24 22 22 20 21 23 24 24 24 23 21 21 21 22
31 28 25 24 23 22 21 19 20 17 16 11 15 10 10 11 10 21 21 19 18 20 18 17 17 18 17 22 25 19 17 24 21 24 23 23 20 20 22 22 21 20 19
32 29 27 27 25 24 23 22 20 22 21 21 17 16 12 13 11 14 22 23 21 21 18 18 19 19 22 20 19 22 21 21 28 23 24 23 22 23 25 26 24 25 23
34 31 29 27 25 23 24 23 23 21 20 21 25 22 19 17 16 16 21 24 25 25 25 22 19 19 21 23 24 25 25 26 26 28 24 25 25 27 28 29 29 26 24
33 31 31 26 26 25 25 25 24 25 23 25 26 30 29 27 26 26 26 27 25 24 26 25 20 20 23 24 24 26 27 27 28 28 29 31 29 28 30 29 28 27 27
34 32 30 27 26 27 26 27 26 25 27 28 29 26 30 34 33 32 31 32 31 27 24 22 25 23 21 24 25 27 28 27 29 32 32 32 32 31 30 30 29 29 27
34 30 34 33 27 28 29 28 28 27 26 27 29 32 25 21 32 35 35 35 34 34 30 27 27 25 26 27 27 27 29 30 31 31 32 31 32 32 30 31 31 29 27
34 33 33 35 34 27 30 30 29 29 29 28 27 30 31 31 29 27 29 33 34 36 37 35 34 31 31 30 32 32 32 33 33 32 33 35 35 33 30 32 31 30 29
36 32 34 36 34 33 31 34 32 32 31 30 30 31 32 31 33 32 30 26 29 30 28 28 33 39 34 33 33 33 35 35 35 35 33 34 34 33 32 30 31 32 30
30 34 31 34 38 33 32 34 36 33 34 33 32 33 33 34 33 34 33 31 30 33 35 33 31 29 29 40 35 35 35 34 35 34 35 32 33 33 32 32 32 31 35
18 23 33 26 34 37 35 32 37 39 35 37 36 35 35 36 35 35 35 32 35 36 35 37 38 36 34 32 30 38 37 37 37 34 33 34 33 30 32 33 32 36 38

GFSGL_850_spd_033.txt.gz
Wind_Speed
13 13 11 9 8 6 3 7 10 8 5 4 4 4 4 3 2 3 4 3 3 4 3 5 7 6 6 7 9 24 20 25 26 21 22 19 22 27 32 29 36 38 39
13 13 11 7 8 6 5 9 11 9 9 6 9 5 4 3 1 3 4 2 0 3 4 2 2 6 7 10 17 22 22 25 23 30 31 27 30 26 38 40 42 39 35
15 13 9 9 7 5 7 10 16 14 11 8 6 4 3 1 1 3 3 1 5 5 5 5 11 11 13 16 18 21 19 24 27 33 33 33 42 43 47 44 41 40 36
16 13 9 7 2 6 10 15 13 10 10 9 8 5 4 3 5 5 5 7 5 4 4 7 9 11 13 18 15 13 16 22 30 35 40 43 44 44 48 43 39 33 31
17 13 8 5 6 5 11 15 13 11 10 9 7 5 5 6 7 5 8 5 2 4 8 10 9 12 13 12 15 18 18 25 32 37 46 47 47 48 45 40 37 32 27
17 10 8 10 8 6 11 17 13 12 11 9 4 3 5 2 6 7 8 7 4 5 7 10 9 7 12 13 14 14 19 33 47 45 46 50 48 46 41 36 34 31 28
15 11 10 9 9 8 11 17 16 13 11 4 4 5 6 6 10 10 10 8 5 6 8 9 11 12 16 17 15 16 33 32 35 41 51 48 43 40 35 32 31 28 30
15 12 13 11 10 9 9 13 16 15 13 10 6 7 10 11 11 10 9 9 8 10 9 11 11 16 16 19 19 33 38 33 35 44 40 41 34 35 31 26 30 30 26
17 14 12 9 12 11 9 9 10 11 12 11 9 11 12 13 11 11 9 10 13 12 10 11 13 15 16 18 24 33 39 35 33 33 29 29 26 25 26 31 28 27 27
21 12 16 13 12 10 8 10 11 11 14 14 12 11 10 10 10 9 10 11 13 13 12 12 12 15 17 18 23 30 37 38 31 33 30 29 30 26 27 22 23 22 24
18 14 19 15 13 9 11 11 10 11 13 15 14 11 12 10 10 10 11 8 9 10 15 15 15 16 17 19 21 31 40 36 28 33 30 32 29 28 23 19 17 13 17
17 20 19 16 14 11 14 14 10 10 15 16 14 13 12 12 11 11 12 8 6 11 19 18 19 17 17 19 24 28 34 31 33 35 32 29 27 28 21 17 16 11 10
19 24 20 17 13 13 14 14 12 11 12 13 13 13 13 13 16 14 16 13 10 16 22 22 20 20 22 19 25 31 32 29 32 35 32 28 25 26 22 22 20 16 12
24 25 24 20 15 13 13 13 12 12 11 13 13 12 11 15 19 20 22 17 16 21 21 21 20 19 20 25 26 26 30 31 30 33 31 26 25 27 23 22 21 20 16
27 26 22 16 16 14 15 15 13 10 8 9 9 11 13 20 22 24 23 20 21 20 21 20 18 20 24 26 26 27 31 33 30 26 25 26 27 26 24 22 20 18 17
31 28 25 19 19 16 19 16 12 11 8 11 6 8 10 14 21 26 22 18 20 22 20 19 19 21 26 28 29 29 28 29 26 24 24 26 26 26 24 22 20 21 22
33 31 28 23 24 19 21 20 15 13 7 16 10 8 9 13 19 26 21 21 21 20 21 21 21 24 27 29 29 29 28 24 21 23 23 22 21 21 21 22 22 22 24
32 31 29 25 28 24 22 22 19 16 16 19 18 12 9 9 16 21 24 22 25 21 22 21 20 22 25 27 26 25 23 21 24 24 23 21 20 21 23 27 27 27 25
33 33 30 27 27 27 23 23 20 23 20 20 19 19 17 16 14 16 23 27 28 26 27 24 21 21 22 22 24 26 24 22 24 25 28 31 25 24 23 25 26 26 25
35 34 32 28 29 27 28 27 26 24 23 26 26 25 24 23 24 26 27 27 28 28 29 28 27 27 28 25 24 23 26 27 28 27 33 27 28 29 29 27 28 30 32
37 35 33 30 31 28 29 30 29 28 28 25 21 26 29 29 29 28 29 31 31 30 30 31 30 30 26 29 29 28 29 28 30 31 32 35 36 35 35 33 31 33 34
38 35 33 34 31 33 32 30 30 31 29 30 27 24 22 27 32 32 32 32 33 33 32 32 34 34 32 30 34 33 33 34 34 35 35 35 36 37 37 36 35 34 35
40 37 36 32 36 31 32 32 32 33 32 30 30 29 29 30 28 28 31 33 33 34 34 34 32 31 34 38 33 30 34 35 34 34 36 36 36 37 36 37 37 36 35
34 40 38 36 34 38 33 34 35 34 34 34 32 34 32 31 31 30 28 26 27 29 33 37 39 38 35 34 34 37 36 35 33 34 34 36 37 38 38 37 37 37 37
10 30 38 36 35 30 39 34 34 36 36 36 36 38 37 35 34 34 33 33 31 30 29 29 35 39 43 42 41 39 38 36 37 37 38 38 39 38 37 38 39 40 38
7 11 11 38 37 36 33 36 39 35 38 39 38 39 40 41 40 38 37 36 36 34 33 31 30 31 33 33 33 39 43 40 37 35 34 37 40 40 38 36 37 39 40

GFSGL_850_spd_036.txt.gz
Wind_Speed
17 13 11 13 7 4 2 6 7 8 6 3 4 5 5 4 4 4 4 4 6 8 7 7 12 12 11 15 19 19 16 19 24 22 20 22 17 19 19 24 26 33 45
14 17 10 8 6 6 3 8 9 6 8 7 7 6 5 3 3 3 4 5 7 7 7 9 11 13 13 16 16 23 22 25 25 27 24 22 23 20 24 42 45 38 36
17 14 11 7 6 6 6 12 13 10 9 7 5 4 1 4 3 4 4 5 4 8 5 7 9 9 11 14 18 28 24 25 26 30 29 31 29 37 33 32 41 41 39
17 12 9 8 5 4 10 12 18 13 9 7 5 5 5 5 4 4 4 4 4 4 5 5 7 7 10 16 23 24 26 25 27 32 32 35 40 34 35 43 39 37 37
19 12 9 9 6 8 15 16 14 11 10 8 7 7 7 6 7 7 6 3 2 4 8 8 9 10 13 14 17 17 20 29 33 35 41 41 42 42 44 44 42 40 32
17 11 11 8 9 8 15 17 13 12 11 9 7 8 3 4 5 7 7 5 1 4 9 9 10 13 14 11 12 14 16 28 34 41 44 45 45 47 46 45 39 35 30
17 12 9 8 10 11 17 16 14 12 12 9 6 4 4 4 8 8 7 5 3 5 8 8 10 14 13 12 14 16 16 23 33 39 47 48 48 44 41 37 33 31 30
17 12 11 11 10 11 16 17 15 14 12 7 4 5 6 8 9 8 9 7 8 8 7 7 11 15 16 15 15 21 31 25 29 33 36 45 44 40 33 33 32 25 27
18 13 12 14 11 11 12 15 16 14 12 9 6 9 10 9 9 8 7 9 10 9 9 9 14 16 15 15 19 29 33 35 37 40 41 42 36 29 29 29 27 28 29
19 14 14 12 11 11 11 12 14 13 13 11 10 10 10 8 7 6 6 9 10 12 11 10 13 14 13 17 22 26 33 32 31 41 39 38 31 26 21 19 24 28 26
20 16 17 12 11 9 12 12 13 13 14 15 12 12 10 8 7 8 7 7 7 11 14 14 14 13 13 15 21 26 27 31 34 34 30 28 26 23 21 22 20 17 19
22 20 19 14 14 10 12 12 10 12 15 16 15 11 12 10 9 9 8 5 4 8 14 16 19 18 16 17 26 27 29 31 30 29 30 28 26 27 24 19 17 13 12
25 22 18 16 13 10 14 12 10 11 15 18 16 15 14 13 12 10 8 5 7 15 17 21 22 20 21 19 24 29 29 29 30 28 31 28 26 24 20 18 16 13 11
24 24 22 18 14 12 13 11 10 11 12 14 16 16 17 15 16 15 13 9 13 18 19 22 22 20 20 21 24 28 26 26 32 33 29 25 26 25 19 17 17 15 12
25 25 25 20 14 12 14 13 11 8 5 5 10 13 16 19 20 18 17 15 20 20 22 23 24 24 22 24 30 32 26 27 32 31 27 26 25 24 20 18 17 16 16
29 28 26 22 18 13 17 15 13 11 9 4 3 4 8 13 20 21 18 17 18 20 18 21 24 27 30 31 31 33 30 28 29 32 27 24 23 24 23 21 20 21 20
32 29 27 24 20 16 21 18 14 11 10 10 5 6 10 16 19 20 19 17 19 16 14 16 20 26 28 28 30 32 32 31 28 27 28 26 26 25 25 24 23 22 23
31 28 28 25 20 18 17 20 16 15 12 15 13 11 10 13 19 22 20 19 21 20 18 16 17 21 25 26 27 26 29 28 28 26 25 25 25 26 25 26 26 27 27
32 33 29 26 22 18 18 20 19 16 14 14 17 15 13 14 18 23 21 22 23 22 22 21 19 20 22 24 25 25 25 27 26 26 26 26 25 25 25 25 26 27 27
33 33 31 28 24 20 22 22 23 22 20 17 19 19 18 18 22 24 26 26 26 25 24 24 23 22 23 23 24 24 26 27 26 25 27 28 28 28 28 27 27 27 27
34 33 32 31 28 23 25 27 24 25 24 24 24 22 23 23 23 24 25 26 27 28 27 28 28 27 27 27 26 27 29 29 29 29 30 29 30 31 31 32 31 32 32
38 36 35 33 30 27 28 30 29 27 26 26 25 25 26 29 28 27 27 28 29 30 30 30 32 31 31 31 31 32 33 34 34 35 36 34 34 35 38 37 36 37 37
38 37 37 36 33 30 29 31 32 33 32 28 28 28 30 31 30 32 32 31 30 30 31 33 34 35 36 36 36 36 36 38 37 34 34 35 36 38 39 40 41 41 41
33 38 38 37 37 35 33 32 34 35 34 35 32 32 30 32 32 30 29 28 29 32 33 34 35 36 37 40 42 43 42 39 36 39 39 37 38 39 40 41 41 41 41
10 23 34 39 39 36 33 35 33 34 35 37 38 38 35 33 34 34 32 31 30 30 30 31 35 37 38 38 39 40 43 45 43 40 36 36 38 39 39 41 43 43 43
9 11 6 27 32 36 36 34 37 38 37 36 39 39 38 37 35 34 34 33 34 33 32 32 32 32 32 33 36 40 42 42 41 40 40 40 42 43 44 45 44 44 43

GFSGL_850_spd_042.txt.gz
Wind_Speed
21 20 19 16 14 12 10 10 9 8 8 8 8 8 7 6 5 5 7 9 9 8 8 7 7 11 12 11 11 13 18 17 14 14 12 10 10 11 15 13 14 19 19
20 17 15 13 12 11 10 9 10 11 9 9 9 7 6 4 3 4 7 7 7 8 10 10 7 9 11 11 9 11 18 15 14 22 20 17 17 14 16 16 18 21 23
19 15 14 13 12 11 9 10 12 11 10 10 9 7 4 2 2 4 5 6 7 8 8 8 8 10 11 11 10 15 17 14 13 25 25 19 19 16 25 23 25 24 22
19 17 15 13 10 9 8 11 13 13 11 10 7 5 1 1 3 4 5 6 5 6 8 7 7 11 13 15 17 17 18 13 18 26 23 23 19 15 18 25 35 37 36
20 15 14 11 9 8 9 14 14 13 10 7 5 2 2 5 4 4 4 4 4 5 6 6 5 10 14 16 20 21 19 18 24 26 27 22 20 23 29 32 31 37 34
19 15 14 12 8 7 11 15 16 13 9 6 3 2 6 2 2 4 4 3 5 7 5 6 5 9 13 12 18 20 20 25 28 29 29 26 25 27 30 34 41 38 35
19 16 13 10 8 10 12 15 14 10 8 8 4 4 2 2 2 4 3 1 2 4 4 5 11 13 14 17 16 16 17 19 19 27 29 28 32 35 41 44 40 41 42
18 15 12 8 9 11 15 15 12 10 8 6 2 1 1 2 4 4 3 2 4 5 5 4 10 16 17 20 21 20 18 17 20 22 24 29 27 29 35 40 41 37 30
18 15 11 8 9 11 15 16 12 11 8 5 2 2 4 4 4 3 4 4 5 6 5 6 8 9 10 19 23 21 21 19 17 18 22 27 28 20 33 37 36 30 29
18 15 9 8 8 8 13 14 11 11 8 5 3 5 6 5 4 3 5 4 4 7 9 9 9 10 9 15 19 22 26 26 23 22 22 27 26 31 34 29 29 25 27
16 12 10 10 8 8 10 13 12 12 10 7 5 7 6 5 4 5 5 4 5 7 10 11 10 12 11 11 18 18 23 24 20 24 27 27 27 33 30 22 21 20 23
17 12 11 11 10 9 9 9 11 11 10 9 8 9 7 4 5 5 6 5 6 6 11 12 14 14 13 14 15 14 20 23 22 25 26 29 31 33 26 21 16 16 17
18 14 13 11 11 8 8 8 9 9 10 11 11 8 7 5 5 6 5 3 5 7 11 12 18 16 18 18 18 20 22 22 24 30 36 33 30 28 23 21 19 22 15
18 16 13 12 12 9 8 6 4 5 10 12 12 10 8 7 6 5 3 2 8 10 16 16 17 18 18 19 21 21 24 30 36 35 32 30 24 24 23 22 22 24 22
19 17 16 13 12 9 9 7 3 3 2 5 9 9 8 8 7 5 3 2 9 14 21 18 20 21 20 23 23 24 27 30 30 26 27 24 24 23 24 22 20 22 22
20 19 18 15 12 10 10 10 7 5 5 4 2 3 3 7 7 7 6 7 11 17 20 20 20 21 21 23 24 24 24 26 23 22 24 23 25 26 23 21 21 21 19
20 19 19 19 14 11 11 12 11 7 5 4 4 3 5 7 11 10 8 11 11 15 18 17 19 19 21 23 23 23 22 21 21 23 24 25 26 22 20 21 20 20 20
21 17 19 19 16 12 10 11 11 7 3 3 4 3 5 9 13 13 11 13 12 11 16 17 19 21 22 23 24 22 21 22 23 23 25 24 24 23 22 21 21 21 20
22 18 18 19 18 14 9 12 11 9 4 2 6 6 7 11 15 14 13 11 12 12 12 14 16 19 21 23 22 24 24 24 25 26 27 26 24 23 23 22 22 22 22
22 20 16 18 19 17 13 12 14 11 8 5 7 6 6 11 16 18 16 14 14 12 10 9 10 13 15 21 24 24 24 24 26 27 29 28 26 26 26 24 24 25 25
25 22 21 17 18 19 17 13 12 13 12 9 7 7 5 3 7 12 13 13 14 14 14 13 12 11 12 15 19 22 25 27 29 29 29 30 30 30 29 28 27 27 27
24 23 22 21 20 19 20 17 13 13 13 13 12 11 11 12 10 9 9 11 11 12 12 14 15 16 17 17 17 19 21 22 26 28 28 28 29 29 28 29 28 28 29
21 21 20 20 20 20 20 20 19 15 14 13 12 13 13 13 13 13 12 11 11 11 13 16 18 19 19 20 20 22 24 26 26 27 28 29 30 30 30 31 31 33 35
19 20 20 17 16 16 18 20 21 19 16 14 14 15 15 15 14 13 13 15 15 15 15 17 19 21 23 25 26 26 26 26 27 29 29 30 31 32 33 35 36 38 38
12 17 17 14 13 14 16 17 19 21 21 20 18 19 19 20 20 20 19 17 17 18 19 20 21 20 23 25 27 29 30 30 31 31 32 34 36 37 38 39 40 41 41
10 11 14 12 12 12 13 15 15 17 19 21 22 24 24 24 25 25 26 27 27 27 26 26 25 25 25 26 27 28 30 32 34 36 38 40 42 44 45 47 47 48 48

GFSGL_850_spd_045.txt.gz
Wind_Speed
22 22 22 21 18 15 15 13 11 9 9 10 11 11 10 10 9 8 7 8 8 9 10 8 8 9 11 11 13 13 11 10 10 13 10 10 10 12 16 16 16 20 21
24 23 22 19 17 15 13 11 10 10 11 11 10 10 9 8 8 7 7 8 8 8 10 11 7 6 11 12 12 13 16 16 15 19 15 14 14 17 17 18 20 20 22
25 22 19 16 15 13 12 12 12 12 10 11 10 10 9 7 5 5 6 7 7 8 11 12 11 9 11 13 11 9 16 17 15 22 20 20 18 17 17 21 24 25 25
22 19 17 16 15 14 12 12 13 12 11 12 11 9 5 3 4 4 5 5 6 7 8 8 11 12 13 13 13 16 18 19 17 23 26 24 22 21 22 27 33 33 38
20 19 18 17 14 12 10 13 14 14 13 11 8 5 2 3 4 4 3 4 5 6 7 9 9 13 15 16 17 19 20 18 22 28 28 28 27 29 26 31 34 38 37
21 20 18 15 11 9 12 16 15 14 11 8 7 1 3 2 2 3 4 4 6 9 4 9 8 11 15 16 17 17 20 19 28 28 31 29 30 27 30 29 31 35 32
21 19 16 13 9 11 15 17 16 13 10 8 4 3 1 1 1 4 3 3 2 4 4 9 8 10 14 18 21 19 18 12 16 26 31 27 27 28 33 34 36 35 38
19 17 14 11 11 13 14 17 15 10 9 9 3 1 1 4 5 5 4 2 4 6 6 10 12 13 15 21 22 22 19 17 16 22 23 21 21 28 26 34 38 36 34
16 14 12 11 12 13 15 17 13 11 10 7 2 3 4 5 5 4 4 4 6 6 7 10 14 17 17 18 23 24 22 20 17 22 21 22 23 29 33 38 38 37 35
15 13 12 12 10 11 15 15 11 12 9 6 3 6 5 6 6 5 5 4 5 6 9 10 11 13 20 18 23 25 25 23 21 20 22 26 21 25 33 32 33 30 28
13 14 12 11 9 9 14 14 12 14 11 6 6 8 5 5 6 7 6 5 5 6 10 11 13 12 15 22 20 21 26 25 22 22 24 27 27 27 27 29 26 21 20
15 14 13 11 10 9 12 13 12 12 11 8 8 9 6 5 6 8 7 6 6 7 10 12 15 16 18 16 21 22 22 23 25 23 25 28 25 29 30 27 20 19 16
16 14 14 11 10 9 10 10 11 11 10 10 9 10 7 6 7 6 5 4 6 8 11 15 18 17 17 16 19 20 25 25 24 24 27 27 28 33 30 26 21 17 18
18 15 14 11 11 10 10 8 7 9 11 11 11 10 8 7 8 6 5 4 7 10 18 19 18 18 19 20 21 22 24 23 25 26 31 32 34 33 27 21 20 20 16
18 15 13 11 11 10 10 9 7 7 7 9 10 9 7 8 7 6 4 7 11 15 20 21 19 20 21 22 24 23 24 23 25 31 32 32 31 28 24 22 21 23 19
21 16 14 11 11 11 11 11 11 10 10 9 8 8 7 8 9 8 6 9 12 19 20 21 19 20 22 21 21 23 24 26 31 29 27 28 28 27 23 23 21 21 21
21 18 15 14 11 11 12 13 12 11 11 9 7 8 8 11 12 10 9 13 14 18 18 20 18 17 22 23 23 24 26 24 26 22 21 20 21 20 24 22 20 19 17
21 17 14 14 14 11 12 12 11 9 8 8 7 6 8 11 14 12 11 13 16 17 17 18 19 20 19 21 23 22 20 23 23 20 20 20 21 21 22 18 18 17 16
23 18 14 15 15 12 11 12 11 10 8 6 8 7 10 14 15 13 11 12 14 15 17 16 17 17 19 17 17 20 20 19 19 20 19 20 22 22 20 17 16 18 18
22 18 14 14 16 15 12 12 12 12 8 5 7 6 10 14 17 17 15 14 13 11 12 14 16 18 20 21 20 19 20 23 24 21 20 21 22 22 20 19 18 18 20
20 20 17 15 14 16 15 13 13 13 10 8 8 7 7 8 13 12 13 14 13 13 12 12 12 13 14 19 23 24 24 23 24 25 22 23 25 24 24 20 20 21 21
23 20 18 17 15 15 16 15 12 12 12 11 10 9 8 7 6 7 8 10 11 12 12 12 12 12 13 14 15 17 20 22 22 24 25 24 25 27 26 25 25 25 24
23 23 21 19 17 17 16 15 15 12 12 12 11 11 10 9 8 7 5 5 7 8 10 12 13 14 15 15 16 17 19 21 22 25 28 28 28 27 27 26 26 25 26
18 18 17 18 17 15 14 15 15 15 11 11 12 11 10 9 8 7 8 8 8 9 9 10 12 13 15 16 18 19 19 20 21 23 23 26 27 28 30 28 28 29 29
13 14 14 14 13 11 9 9 8 8 13 11 9 10 8 11 11 11 11 12 13 14 15 16 17 17 18 19 20 22 23 23 24 25 26 27 30 30 29 29 31 32 34
10 14 18 16 13 10 9 9 9 8 7 7 8 8 9 9 9 11 11 12 13 13 14 14 15 16 16 19 21 24 26 27 27 28 30 33 33 33 32 34 36 36 35